User: anonymous   Login
Location: Kailua
(21.4020°N, 157.7390°W)
Time: 00:02:39
(UTC-10:00)
Language:

Cosmos 2297 Rocket - Orbit

View from above orbital plane
View from above orbital plane
View from above satellite
View from above satellite

Ground track
Ground track

The orbit data is extracted from the following two-line orbital elements,

1 23405U 94077B   16272.82166037 +.00000017 +00000-0 +33124-4 0  9997
2 23405 070.9847 044.9117 0003634 318.9957 041.0892 14.15189026128287
Epoch (UTC): 28 September 2016 19:43:11
Eccentricity: 0.0003634
inclination: 70.9847°
perigee height: 839 km
apogee height: 844 km
right ascension of ascending node: 44.9117°
argument of perigee: 318.9957°
revolutions per day: 14.15189026
mean anomaly at epoch: 41.0892°
orbit number at epoch: 12828

The dashed part of the orbit path shows where the satellite is in the earth's shadow,  

DLR